SCP
0 0 0 0 0 0 0 0 0 0 0 0 0 0 0 0 0 0 0 0 0 0 0 0 0 0 -0 0 0 0 0 0
0 0 0 0 0 0 0 0 0 0 0 0 0 0 0 0 0 0 0 0 0 0 0 0 0 0 0 0 0 0 0 0
0 0 0 0 0 0 0 0 0 0 0 0 0 0 0 0 0 0 0 0 0 0 0 0 0 0 0 0 0 0 0 0
0 0 0 0 0 0 0 0 0 0 0 0 0 0 0 0 0 0 0 0 0 0 0 0 0 0 0 0 0 0 0 0
0 0 0 0 0 0 0 0 0 0 0 0 0 0 0 0 0 0 0 0 0 0 0 0 0 0 0 0 0 0 0 0
0 0 0 0 0 0 0 0 0 0 0 0 0 0 0 0 0 0 0 0 0 0 0 0 0 0 0 0 0 0 0 0
0 0 0 0 0 0 0 0 0 0 0 0 0 0 0 0 0 0 0 0 0 0 0 0 0 0 0 0 0 0 0 0
0 0 0 0 0 0 0 0 0 0 0 0 0 0 0 0 0 0 0 0 0 0 0 0 0 0 0 0 0 0 0 0
1 0 0 0 0 0 0 0 0 0 0 0 0 0 0 0 0 0 0 0 0 0 0 0 0 0 0 0 1 0 0 0
0 0 0 0 0 1 0 0 0 0 0 0 1 1 0 0 0 0 0 0 0 0 0 0 0 0 1 0 0 1 1 0
1 0 0 0 0 0 1 1 1 1 1 1 1 0 0 0 0 0 0 0 0 0 0 0 0 0 0 0 0 0 0 0
1 1 1 1 1 0 1 1 2 1 1 1 1 0 0 0 0 0 0 0 0 0 0 0 0 0 0 0 0 0 0 1
1 1 0 1 1 0 1 1 0 0 1 0 0 0 0 0 0 1 1 1 0 0 0 0 0 0 0 0 0 0 0 1
1 1 1 1 1 0 -0 1 1 0 0 0 1 0 0 0 0 0 0 1 0 0 0 0 0 0 0 0 0 0 0 0
1 1 0 2 1 1 0 0 1 0 0 0 0 1 1 1 1 1 1 0 0 0 1 1 0 0 0 0 0 0 0 0
1 1 1 0 1 0 0 1 0 0 0 1 1 1 1 1 2 2 2 1 0 1 1 1 0 0 0 0 0 0 0 0
0 1 0 0 0 0 0 0 0 0 -0 1 1 1 1 1 1 1 0 1 0 1 0 0 0 0 0 0 0 0 0 0
1 1 1 1 0 0 0 0 0 0 0 0 0 0 1 1 1 1 0 0 0 0 0 0 0 0 0 0 0 0 0 0
0 0 0 0 0 0 0 0 0 0 0 0 0 0 0 0 0 0 0 0 0 0 0 0 0 0 0 0 0 0 -0 0
0 0 0 0 0 0 0 0 0 0 0 0 0 0 0 0 0 0 0 0 0 0 0 0 0 0 -0 -0 0 0 -0 0
Wind_Speed_500mb
33 30 26 29 29 27 21 20 16 12 10 4 2 5 6 9 8 4 11 10 9 15 17 19 20 25 17 23 24 23 19 19
35 30 27 29 31 28 25 17 15 16 9 4 7 4 6 10 7 11 10 13 14 15 16 18 18 17 21 17 19 22 25 21
34 30 28 29 30 29 23 22 17 13 13 10 6 10 11 13 16 14 17 17 18 18 20 21 22 20 23 23 24 24 23 23
35 34 32 31 30 29 24 24 22 20 14 13 12 14 15 15 17 21 17 21 21 25 23 25 27 26 25 25 26 27 23 23
39 37 36 33 32 28 28 26 24 20 18 18 13 17 18 20 21 23 26 30 28 27 28 31 31 29 28 30 26 28 27 27
39 38 37 34 32 31 29 24 25 22 20 17 18 19 17 21 26 24 30 34 35 29 32 31 32 34 32 34 33 31 31 31
38 38 37 37 34 31 31 28 27 24 20 20 21 20 20 23 29 30 29 24 29 32 35 35 38 39 35 39 40 36 36 37
38 38 37 38 37 35 32 29 26 27 25 22 17 17 23 24 27 28 30 32 32 33 36 37 40 37 41 39 46 43 41 42
38 38 39 38 38 37 33 29 29 25 21 16 19 23 24 22 25 19 21 26 30 32 32 38 39 38 38 42 44 50 47 44
36 36 39 40 37 30 29 28 29 27 22 18 18 16 21 27 28 24 20 15 27 26 26 30 34 38 42 48 51 54 50 43
40 40 38 39 41 31 40 30 36 29 22 18 19 21 22 20 11 14 10 20 27 26 27 29 33 38 41 46 48 55 54 52
38 41 36 41 36 29 32 42 41 23 21 15 15 22 19 19 28 26 21 30 29 28 28 37 37 39 46 44 45 47 50 54
29 34 42 49 40 42 53 38 7 8 13 6 12 19 21 24 27 31 30 36 30 33 29 42 50 42 51 50 51 50 46 47
15 29 41 22 17 25 24 16 12 15 7 12 22 22 23 27 32 34 38 34 41 46 28 30 53 52 50 47 44 48 44 44
20 23 12 10 12 17 28 18 15 10 15 14 21 28 30 34 37 40 44 43 47 51 57 64 51 51 51 47 47 49 45 46
3 5 8 9 19 5 5 11 8 22 11 16 25 29 32 34 38 32 36 45 48 51 64 54 55 55 54 51 52 43 48 44
8 11 10 26 16 9 8 12 15 42 12 22 23 29 29 33 35 38 40 47 50 53 62 60 51 46 49 50 50 46 47 46
5 13 22 23 16 10 10 18 42 20 20 23 23 24 25 31 38 44 49 49 51 53 52 48 47 43 47 50 47 43 46 47
20 19 11 10 7 12 28 14 17 17 20 24 25 30 34 39 43 45 49 51 49 47 47 45 47 45 48 49 53 50 45 49
11 8 7 11 22 13 14 13 16 19 23 29 34 35 37 41 44 46 46 47 44 45 46 48 48 43 49 51 51 45 41 40
Wind_Direction_500mb
189 196 200 197 193 187 194 185 173 186 204 167 244 278 257 285 284 315 298 324 295 331 324 327 327 326 351 322 318 325 290 294
196 201 204 193 194 193 193 201 188 181 215 199 238 294 290 302 246 287 295 321 297 306 312 306 312 309 308 312 305 294 300 293
200 203 201 198 197 199 198 201 196 213 200 226 250 265 287 267 289 274 282 296 290 301 295 303 297 300 303 299 300 298 297 293
200 199 198 198 198 200 200 207 207 203 205 225 256 280 286 296 280 272 272 289 287 287 294 296 291 287 287 286 291 291 294 290
202 201 199 200 203 208 207 203 211 224 240 252 261 270 281 284 281 284 282 277 289 278 290 290 281 274 275 288 288 290 291 288
204 202 204 204 209 210 208 209 219 233 227 233 254 265 275 283 291 287 289 296 288 299 296 291 282 274 278 274 274 279 282 281
206 206 207 206 207 206 208 208 212 225 235 242 257 267 284 294 283 289 300 290 299 291 294 291 284 270 270 269 266 268 275 278
211 209 208 207 206 207 210 209 215 220 231 250 266 268 271 279 300 294 281 295 297 297 295 294 291 275 272 267 267 263 272 275
210 211 209 208 209 209 210 214 212 221 233 251 256 267 278 294 300 313 303 298 296 296 297 290 291 287 280 271 273 273 271 265
211 210 211 210 209 215 221 226 223 222 225 240 256 274 290 289 281 283 295 289 308 303 299 297 295 293 292 289 286 273 268 264
209 211 217 217 215 206 227 220 225 217 213 230 257 275 283 281 268 302 258 316 300 300 298 298 300 299 292 287 283 283 274 267
214 211 214 218 220 223 227 231 218 202 222 229 260 289 296 288 291 282 294 297 278 285 287 295 293 300 291 288 287 278 278 267
217 203 230 207 202 230 256 249 199 252 199 256 285 280 292 296 293 296 296 292 289 295 277 295 300 310 295 282 279 281 277 265
206 218 237 249 209 261 211 222 207 171 196 272 276 263 280 288 285 288 293 289 301 300 288 293 295 301 295 287 286 284 286 268
191 200 213 228 209 224 165 184 158 250 249 248 263 276 280 284 284 280 289 290 295 293 295 297 294 297 292 284 284 282 281 277
179 205 181 188 140 62 92 131 3 302 314 292 298 289 286 288 292 288 284 286 291 287 294 295 296 291 286 287 281 286 281 280
139 131 185 133 116 125 52 45 332 305 318 292 286 287 288 294 295 298 300 293 293 292 291 292 288 284 285 289 291 283 282 281
150 103 96 106 71 54 356 313 319 312 285 291 292 296 301 297 300 303 300 299 297 295 294 287 283 284 285 286 285 285 280 280
93 83 47 50 359 325 314 348 304 305 306 304 306 307 307 305 305 302 301 301 300 297 294 292 288 289 290 287 281 283 273 272
80 88 99 340 312 322 333 338 319 315 314 312 312 311 309 308 307 306 304 302 301 299 293 289 287 288 286 285 286 281 273 268
Wind_Speed_850mb
33 30 26 29 29 27 21 20 16 12 10 4 2 5 6 9 8 4 11 10 9 15 17 19 20 25 17 23 24 23 19 19
35 30 27 29 31 28 25 17 15 16 9 4 7 4 6 10 7 11 10 13 14 15 16 18 18 17 21 17 19 22 25 21
34 30 28 29 30 29 23 22 17 13 13 10 6 10 11 13 16 14 17 17 18 18 20 21 22 20 23 23 24 24 23 23
35 34 32 31 30 29 24 24 22 20 14 13 12 14 15 15 17 21 17 21 21 25 23 25 27 26 25 25 26 27 23 23
39 37 36 33 32 28 28 26 24 20 18 18 13 17 18 20 21 23 26 30 28 27 28 31 31 29 28 30 26 28 27 27
39 38 37 34 32 31 29 24 25 22 20 17 18 19 17 21 26 24 30 34 35 29 32 31 32 34 32 34 33 31 31 31
38 38 37 37 34 31 31 28 27 24 20 20 21 20 20 23 29 30 29 24 29 32 35 35 38 39 35 39 40 36 36 37
38 38 37 38 37 35 32 29 26 27 25 22 17 17 23 24 27 28 30 32 32 33 36 37 40 37 41 39 46 43 41 42
38 38 39 38 38 37 33 29 29 25 21 16 19 23 24 22 25 19 21 26 30 32 32 38 39 38 38 42 44 50 47 44
36 36 39 40 37 30 29 28 29 27 22 18 18 16 21 27 28 24 20 15 27 26 26 30 34 38 42 48 51 54 50 43
40 40 38 39 41 31 40 30 36 29 22 18 19 21 22 20 11 14 10 20 27 26 27 29 33 38 41 46 48 55 54 52
38 41 36 41 36 29 32 42 41 23 21 15 15 22 19 19 28 26 21 30 29 28 28 37 37 39 46 44 45 47 50 54
29 34 42 49 40 42 53 38 7 8 13 6 12 19 21 24 27 31 30 36 30 33 29 42 50 42 51 50 51 50 46 47
15 29 41 22 17 25 24 16 12 15 7 12 22 22 23 27 32 34 38 34 41 46 28 30 53 52 50 47 44 48 44 44
20 23 12 10 12 17 28 18 15 10 15 14 21 28 30 34 37 40 44 43 47 51 57 64 51 51 51 47 47 49 45 46
3 5 8 9 19 5 5 11 8 22 11 16 25 29 32 34 38 32 36 45 48 51 64 54 55 55 54 51 52 43 48 44
8 11 10 26 16 9 8 12 15 42 12 22 23 29 29 33 35 38 40 47 50 53 62 60 51 46 49 50 50 46 47 46
5 13 22 23 16 10 10 18 42 20 20 23 23 24 25 31 38 44 49 49 51 53 52 48 47 43 47 50 47 43 46 47
20 19 11 10 7 12 28 14 17 17 20 24 25 30 34 39 43 45 49 51 49 47 47 45 47 45 48 49 53 50 45 49
11 8 7 11 22 13 14 13 16 19 23 29 34 35 37 41 44 46 46 47 44 45 46 48 48 43 49 51 51 45 41 40
Wind_Direction_850mb
189 196 200 197 193 187 194 185 173 186 204 167 244 278 257 285 284 315 298 324 295 331 324 327 327 326 351 322 318 325 290 294
196 201 204 193 194 193 193 201 188 181 215 199 238 294 290 302 246 287 295 321 297 306 312 306 312 309 308 312 305 294 300 293
200 203 201 198 197 199 198 201 196 213 200 226 250 265 287 267 289 274 282 296 290 301 295 303 297 300 303 299 300 298 297 293
200 199 198 198 198 200 200 207 207 203 205 225 256 280 286 296 280 272 272 289 287 287 294 296 291 287 287 286 291 291 294 290
202 201 199 200 203 208 207 203 211 224 240 252 261 270 281 284 281 284 282 277 289 278 290 290 281 274 275 288 288 290 291 288
204 202 204 204 209 210 208 209 219 233 227 233 254 265 275 283 291 287 289 296 288 299 296 291 282 274 278 274 274 279 282 281
206 206 207 206 207 206 208 208 212 225 235 242 257 267 284 294 283 289 300 290 299 291 294 291 284 270 270 269 266 268 275 278
211 209 208 207 206 207 210 209 215 220 231 250 266 268 271 279 300 294 281 295 297 297 295 294 291 275 272 267 267 263 272 275
210 211 209 208 209 209 210 214 212 221 233 251 256 267 278 294 300 313 303 298 296 296 297 290 291 287 280 271 273 273 271 265
211 210 211 210 209 215 221 226 223 222 225 240 256 274 290 289 281 283 295 289 308 303 299 297 295 293 292 289 286 273 268 264
209 211 217 217 215 206 227 220 225 217 213 230 257 275 283 281 268 302 258 316 300 300 298 298 300 299 292 287 283 283 274 267
214 211 214 218 220 223 227 231 218 202 222 229 260 289 296 288 291 282 294 297 278 285 287 295 293 300 291 288 287 278 278 267
217 203 230 207 202 230 256 249 199 252 199 256 285 280 292 296 293 296 296 292 289 295 277 295 300 310 295 282 279 281 277 265
206 218 237 249 209 261 211 222 207 171 196 272 276 263 280 288 285 288 293 289 301 300 288 293 295 301 295 287 286 284 286 268
191 200 213 228 209 224 165 184 158 250 249 248 263 276 280 284 284 280 289 290 295 293 295 297 294 297 292 284 284 282 281 277
179 205 181 188 140 62 92 131 3 302 314 292 298 289 286 288 292 288 284 286 291 287 294 295 296 291 286 287 281 286 281 280
139 131 185 133 116 125 52 45 332 305 318 292 286 287 288 294 295 298 300 293 293 292 291 292 288 284 285 289 291 283 282 281
150 103 96 106 71 54 356 313 319 312 285 291 292 296 301 297 300 303 300 299 297 295 294 287 283 284 285 286 285 285 280 280
93 83 47 50 359 325 314 348 304 305 306 304 306 307 307 305 305 302 301 301 300 297 294 292 288 289 290 287 281 283 273 272
80 88 99 340 312 322 333 338 319 315 314 312 312 311 309 308 307 306 304 302 301 299 293 289 287 288 286 285 286 281 273 268